GW5072 Weather Reports


time (UTC)temp
F
wind
direction
speed
knots
gust
knots
rain 1hr
in
rain 24hr
in
rain mn
in
humidity
%
barometer
mb
20260507164012 68 274 0.0 2.6 0.00 0.04 0.00 79 1017.2
20260507163508 68 2 0.9 2.6 0.00 0.04 0.00 79 1017.1
20260507163013 67 282 0.0 2.6 0.00 0.04 0.00 81 1016.9
20260507162508 67 278 0.0 2.6 0.00 0.04 0.00 80 1016.8
20260507162007 66 77 0.9 2.6 0.00 0.04 0.00 80 1016.7
20260507161520 66 76 0.0 2.6 0.00 0.04 0.00 80 1016.7
20260507161006 66 202 0.0 2.6 0.00 0.04 0.00 81 1016.7
20260507160506 66 221 0.9 2.6 0.00 0.04 0.00 81 1016.6
20260507160028 66 65 0.0 0.9 0.00 0.04 0.00 82 1016.5
20260507155508 65 293 0.0 0.9 0.00 0.04 0.00 84 1016.4
20260507155004 64 89 0.0 1.7 0.00 0.04 0.00 84 1016.3
20260507154529 64 229 0.0 2.6 0.00 0.04 0.00 84 1016.3
20260507154007 64 51 1.7 2.6 0.00 0.04 0.00 83 1016.6
20260507153502 64 98 0.0 2.6 0.00 0.04 0.00 84 1016.6
20260507153024 63 276 0.0 2.6 0.00 0.04 0.00 85 1016.7
20260507152508 63 97 0.0 4.3 0.00 0.04 0.00 85 1016.9
20260507152010 63 266 0.0 4.3 0.00 0.04 0.00 85 1016.9
20260507151519 63 340 0.0 2.6 0.00 0.04 0.00 85 1016.7
20260507151003 63 30 0.0 3.5 0.00 0.04 0.00 86 1016.7
20260507150511 62 318 0.0 4.3 0.00 0.04 0.00 86 1016.6
20260507150021 62 32 0.9 4.3 0.00 0.04 0.00 86 1016.3
20260507145503 62 341 0.0 3.5 0.00 0.04 0.00 86 1016.5
20260507145008 62 348 0.0 3.5 0.00 0.04 0.00 86 1016.6
20260507144519 62 323 0.0 7.0 0.00 0.04 0.00 86 1016.7
20260507144010 62 95 0.0 7.0 0.00 0.04 0.00 86 1016.6
20260507143510 62 33 0.0 5.2 0.00 0.04 0.00 88 1016.7
20260507143017 62 347 0.0 2.6 0.00 0.04 0.00 88 1016.7
20260507142507 61 9 0.0 7.0 0.00 0.04 0.00 88 1016.8
20260507142010 61 41 0.0 7.0 0.00 0.04 0.00 89 1016.6
20260507141527 61 8 0.9 5.2 0.00 0.04 0.00 89 1016.5
20260507141007 61 348 0.9 4.3 0.00 0.04 0.00 89 1016.6
20260507140504 61 328 0.0 4.3 0.00 0.04 0.00 89 1016.7
20260507140027 61 331 0.0 3.5 0.00 0.04 0.00 90 1016.7
20260507135507 61 7 0.0 3.5 0.00 0.04 0.00 90 1016.7
20260507135006 61 335 0.0 3.5 0.00 0.04 0.00 90 1016.7
20260507134530 61 301 0.9 3.5 0.00 0.04 0.00 89 1016.7
20260507134010 61 341 0.0 0.9 0.00 0.04 0.00 89 1017.0
20260507133509 61 7 0.0 1.7 0.00 0.04 0.00 90 1016.9
20260507133026 61 272 0.0 2.6 0.00 0.04 0.00 89 1017.0
20260507132506 61 105 0.0 2.6 0.00 0.04 0.00 90 1016.7
20260507132008 61 338 0.0 2.6 0.00 0.04 0.00 90 1016.7
20260507131524 61 49 0.0 0.9 0.00 0.04 0.00 89 1016.7
20260507131009 61 219 0.0 2.6 0.00 0.04 0.00 90 1016.9
20260507130513 61 311 0.0 3.5 0.00 0.04 0.00 89 1017.0
20260507130023 61 335 0.9 3.5 0.00 0.04 0.00 89 1016.8
20260507125511 61 357 0.0 2.6 0.00 0.04 0.00 89 1016.7
20260507125008 61 312 0.0 2.6 0.00 0.04 0.00 89 1016.8
20260507124522 61 333 0.9 2.6 0.00 0.04 0.00 89 1016.9
20260507124011 61 345 0.0 2.6 0.00 0.04 0.00 90 1016.7
20260507123509 61 347 0.0 3.5 0.00 0.04 0.00 90 1016.8
20260507123029 62 342 0.0 3.5 0.00 0.04 0.00 90 1016.4
20260507122509 61 309 0.9 3.5 0.00 0.04 0.00 90 1016.4
20260507122011 62 349 0.0 4.3 0.00 0.04 0.00 90 1016.0
20260507121516 62 314 0.0 4.3 0.00 0.04 0.00 90 1015.9
20260507121004 62 357 0.0 3.5 0.00 0.04 0.00 90 1015.4
20260507120508 62 1 0.0 3.5 0.00 0.04 0.00 90 1015.4
20260507120011 62 317 0.0 1.7 0.00 0.04 0.00 89 1015.5
20260507115503 62 282 0.0 1.7 0.00 0.04 0.00 89 1015.4
20260507115008 62 348 0.0 3.5 0.00 0.04 0.00 89 1015.3
20260507114511 62 315 0.0 3.5 0.00 0.04 0.00 89 1015.1
20260507114008 63 13 0.0 0.9 0.00 0.04 0.00 89 1015.4
20260507113504 63 323 0.0 3.5 0.00 0.04 0.00 89 1015.4
20260507113012 63 124 0.9 5.2 0.00 0.04 0.00 89 1015.4
20260507112511 63 285 0.9 5.2 0.00 0.04 0.00 89 1015.4
20260507112004 63 327 0.0 3.5 0.00 0.04 0.00 89 1015.0
20260507111504 63 360 0.0 3.5 0.00 0.04 0.00 89 1015.1
20260507111008 63 343 0.9 3.5 0.00 0.04 0.00 89 1015.1
20260507110508 63 319 0.0 2.6 0.00 0.04 0.00 89 1014.7
20260507110024 63 322 0.0 2.6 0.00 0.04 0.00 90 1014.9
20260507105506 63 345 0.0 1.7 0.00 0.04 0.00 90 1014.7
20260507105003 63 350 0.0 1.7 0.00 0.04 0.00 90 1014.8
20260507104521 63 338 0.0 0.0 0.00 0.04 0.00 90 1014.6
20260507104004 64 345 0.0 0.0 0.00 0.04 0.00 91 1014.4
20260507103508 64 358 0.0 0.0 0.00 0.04 0.00 90 1014.4
20260507103019 64 345 0.0 0.0 0.00 0.04 0.00 91 1014.6
20260507102503 64 315 0.0 0.0 0.00 0.04 0.00 91 1014.4
20260507102008 64 238 0.0 0.0 0.00 0.04 0.00 91 1014.4
20260507101514 64 236 0.0 0.0 0.00 0.04 0.00 91 1014.2
20260507101004 64 236 0.0 0.0 0.00 0.04 0.00 91 1014.0
20260507100509 64 236 0.0 0.0 0.00 0.04 0.00 90 1014.3
20260507100018 64 236 0.0 0.9 0.00 0.04 0.00 90 1014.2
20260507095508 64 84 0.0 0.9 0.00 0.04 0.00 90 1013.9
20260507095008 64 216 0.0 0.0 0.00 0.04 0.00 90 1014.0
20260507094509 64 215 0.0 0.9 0.00 0.04 0.00 90 1013.7
20260507094010 64 215 0.0 1.7 0.00 0.04 0.00 90 1013.9
20260507093505 64 86 0.0 1.7 0.00 0.04 0.00 90 1013.7
20260507093008 64 219 0.0 0.9 0.00 0.04 0.00 90 1013.4
20260507092507 64 80 0.0 0.9 0.00 0.04 0.00 90 1013.5
20260507092008 64 79 0.0 0.9 0.00 0.04 0.00 90 1013.7
20260507091506 64 98 0.0 0.9 0.00 0.04 0.00 91 1013.4
20260507091003 64 341 0.0 1.7 0.00 0.04 0.00 90 1013.6
20260507090503 64 252 0.0 1.7 0.00 0.04 0.00 90 1013.6
20260507090010 64 217 0.0 1.7 0.00 0.04 0.00 90 1013.6
20260507085503 63 349 0.0 1.7 0.00 0.04 0.00 90 1013.6
20260507085004 63 349 0.0 1.7 0.00 0.04 0.00 90 1013.8
20260507084505 63 321 0.0 0.9 0.00 0.04 0.00 90 1013.8
20260507084004 63 37 0.0 0.9 0.00 0.04 0.00 90 1013.6
20260507083501 63 37 0.0 0.9 0.00 0.04 0.00 90 1013.7
20260507083003 63 206 0.0 0.0 0.00 0.04 0.00 90 1013.3
20260507082503 63 207 0.0 0.9 0.00 0.04 0.00 90 1013.6
20260507082002 63 23 0.0 0.9 0.00 0.04 0.00 90 1013.9
20260507081518 63 210 0.0 0.9 0.00 0.04 0.00 90 1013.4
20260507081002 63 297 0.0 4.3 0.00 0.04 0.00 89 1013.5
20260507080506 63 341 0.9 4.3 0.00 0.04 0.00 89 1013.7
20260507080005 64 330 0.0 3.5 0.00 0.04 0.00 89 1014.1
20260507075503 64 323 0.9 3.5 0.00 0.04 0.00 89 1013.7
20260507075004 64 358 0.0 3.5 0.00 0.04 0.00 89 1013.7
20260507074507 64 310 0.0 5.2 0.00 0.04 0.00 89 1013.6
20260507074002 64 65 0.0 5.2 0.00 0.04 0.00 89 1014.1
20260507073506 64 348 0.0 2.6 0.00 0.04 0.00 88 1014.0
20260507073008 64 354 0.0 2.6 0.00 0.04 0.00 88 1014.3
20260507072504 64 353 0.0 1.7 0.00 0.04 0.00 88 1013.8
20260507072001 64 327 0.0 3.5 0.00 0.04 0.00 88 1014.0
20260507071503 64 329 0.0 3.5 0.00 0.04 0.00 88 1013.8
20260507071005 64 338 0.0 2.6 0.00 0.04 0.00 88 1013.8
20260507070503 64 13 0.0 1.7 0.00 0.04 0.00 88 1014.1
20260507070010 64 325 0.0 3.5 0.00 0.04 0.00 88 1014.4
20260507065502 64 22 0.0 3.5 0.00 0.04 0.00 87 1014.3
20260507065005 64 307 0.0 3.5 0.00 0.04 0.00 88 1014.5
20260507064508 64 24 0.0 3.5 0.00 0.04 0.00 87 1014.2
20260507064003 64 321 0.0 2.6 0.00 0.04 0.00 87 1014.2
20260507063504 64 335 0.0 2.6 0.00 0.04 0.00 87 1014.2
20260507063007 64 321 0.0 5.2 0.00 0.04 0.00 87 1014.3
20260507062504 64 323 0.0 5.2 0.00 0.04 0.00 87 1014.5
20260507062004 64 311 0.0 1.7 0.00 0.04 0.00 87 1014.0
20260507061510 64 18 0.0 3.5 0.00 0.04 0.00 87 1014.1
20260507061004 64 333 0.0 4.3 0.00 0.04 0.00 86 1014.4
20260507060503 64 321 0.9 4.3 0.00 0.04 0.00 86 1014.4
20260507060012 64 316 0.0 5.2 0.00 0.04 0.00 87 1014.0
20260507055502 64 310 0.9 5.2 0.00 0.04 0.00 86 1013.7
20260507055005 64 294 0.9 5.2 0.00 0.04 0.00 86 1013.8
20260507054511 65 327 0.0 5.2 0.00 0.04 0.00 86 1013.9
20260507054003 65 349 0.9 5.2 0.00 0.04 0.00 86 1014.1
20260507053503 65 326 0.0 4.3 0.00 0.04 0.00 86 1014.1
20260507053009 65 43 0.0 2.6 0.00 0.04 0.00 86 1014.0
20260507052502 65 311 0.0 2.6 0.00 0.04 0.00 86 1014.1
20260507052006 65 302 0.0 4.3 0.00 0.04 0.00 85 1014.0
20260507051507 65 278 0.0 4.3 0.00 0.04 0.00 85 1014.0
20260507051004 65 307 0.0 3.5 0.00 0.04 0.00 85 1013.8
20260507050506 65 272 0.0 2.6 0.00 0.04 0.00 85 1014.0
20260507050011 65 203 0.0 2.6 0.00 0.04 0.00 85 1013.9
20260507045504 65 315 0.0 5.2 0.00 0.04 0.04 85 1013.8
20260507045004 65 10 0.0 5.2 0.00 0.04 0.04 85 1013.7
20260507044530 66 334 0.0 4.3 0.00 0.04 0.04 86 1013.8
20260507044003 66 328 0.9 4.3 0.00 0.04 0.04 85 1013.8
20260507043503 66 300 0.0 3.5 0.00 0.04 0.04 85 1013.8
20260507043015 66 326 0.0 3.5 0.00 0.04 0.04 85 1013.7
20260507042505 66 345 0.0 4.3 0.00 0.04 0.04 86 1013.7
20260507042005 66 348 0.0 5.2 0.00 0.04 0.04 85 1013.8
20260507041515 66 338 0.0 5.2 0.00 0.04 0.04 85 1013.7
20260507041004 66 329 0.9 5.2 0.00 0.04 0.04 85 1013.6
20260507040505 67 331 0.9 3.5 0.00 0.04 0.04 85 1013.7
20260507040014 67 265 0.0 2.6 0.00 0.04 0.04 85 1013.9
20260507035504 67 283 0.0 3.5 0.00 0.04 0.04 85 1013.8
20260507035002 67 318 0.0 3.5 0.00 0.04 0.04 85 1013.7
20260507034513 67 327 0.9 3.5 0.00 0.04 0.04 84 1013.8
20260507034007 67 326 0.0 2.6 0.00 0.04 0.04 85 1013.9
20260507033503 67 322 0.0 3.5 0.00 0.04 0.04 85 1013.8
20260507033010 67 314 0.9 3.5 0.00 0.04 0.04 84 1013.9
20260507032504 67 335 0.9 3.5 0.00 0.04 0.04 84 1013.6
20260507032008 68 323 0.0 2.6 0.00 0.04 0.04 85 1013.4
20260507031516 68 326 0.0 1.7 0.00 0.04 0.04 85 1013.4
20260507031007 68 334 0.0 1.7 0.00 0.04 0.04 85 1013.3
20260507030506 68 323 0.0 3.5 0.00 0.04 0.04 85 1013.1
20260507030016 68 324 0.0 7.8 0.00 0.04 0.04 85 1013.0
20260507025506 68 346 0.9 7.8 0.00 0.04 0.04 84 1013.0
20260507025003 68 32 0.0 6.1 0.00 0.04 0.04 84 1012.6
20260507024519 68 332 0.9 6.1 0.00 0.04 0.04 84 1012.4
20260507024003 68 288 0.0 4.3 0.00 0.04 0.04 85 1012.5
20260507023504 68 314 0.0 5.2 0.00 0.04 0.04 85 1012.3
20260507023020 69 323 0.0 5.2 0.00 0.04 0.04 84 1012.2
20260507022504 69 17 0.0 6.1 0.00 0.04 0.04 85 1012.2
20260507022009 69 347 0.0 6.1 0.00 0.04 0.04 84 1012.0
20260507021522 69 319 0.9 4.3 0.00 0.04 0.04 85 1011.9
20260507021009 69 309 0.0 4.3 0.00 0.04 0.04 85 1011.7
20260507020508 69 301 0.0 3.5 0.00 0.04 0.04 85 1011.8
20260507020024 69 20 0.0 3.5 0.00 0.04 0.04 85 1011.7
20260507015506 69 322 0.0 2.6 0.00 0.04 0.04 85 1011.5
20260507015003 69 302 0.0 2.6 0.00 0.04 0.04 85 1011.5
20260507014515 69 316 0.0 2.6 0.00 0.04 0.04 85 1011.5
20260507014007 69 359 0.0 2.6 0.00 0.04 0.04 85 1011.4
20260507013506 69 317 0.0 2.6 0.00 0.04 0.04 84 1011.2
20260507013020 70 309 0.0 4.3 0.00 0.04 0.04 84 1011.2
20260507012508 70 316 0.0 4.3 0.00 0.04 0.04 84 1011.2
20260507012006 70 347 0.0 3.5 0.00 0.04 0.04 84 1011.1
20260507011519 70 338 0.9 3.5 0.00 0.04 0.04 84 1010.9
20260507011007 70 330 0.9 5.2 0.00 0.04 0.04 83 1010.8
20260507010507 71 316 0.9 5.2 0.00 0.04 0.04 83 1010.9
20260507010026 71 323 0.9 5.2 0.00 0.04 0.04 83 1011.0
20260507005508 71 20 1.7 6.1 0.00 0.04 0.04 83 1010.9
20260507005011 71 326 0.9 6.1 0.00 0.04 0.04 83 1010.7
20260507004521 71 337 1.7 5.2 0.00 0.04 0.04 83 1010.7
20260507004008 71 354 2.6 5.2 0.00 0.04 0.04 83 1010.5
20260507003508 72 319 0.9 5.2 0.00 0.04 0.04 83 1010.6
20260507003028 72 297 1.7 5.2 0.00 0.04 0.04 83 1010.4
20260507002505 72 321 0.9 5.2 0.00 0.04 0.04 83 1010.3
20260507002011 72 340 0.0 6.1 0.00 0.04 0.04 84 1010.2
20260507001534 72 319 0.9 6.1 0.00 0.04 0.04 83 1010.1
20260507001003 73 23 1.7 5.2 0.00 0.04 0.04 83 1010.1
20260507000503 73 359 0.9 5.2 0.00 0.04 0.04 83 1010.1
20260507000020 74 2 0.9 5.2 0.00 0.04 0.04 83 1010.1
20260506235504 74 344 0.9 4.3 0.00 0.04 0.04 84 1009.9
20260506235002 74 323 0.9 6.1 0.00 0.04 0.04 84 1010.0
20260506234516 74 328 1.7 6.1 0.00 0.04 0.04 84 1009.9
20260506234004 74 319 0.9 7.0 0.00 0.04 0.04 84 1010.0
20260506233507 75 288 0.9 7.0 0.00 0.04 0.04 84 1009.9
20260506233016 75 338 0.9 6.1 0.00 0.04 0.04 84 1009.8
20260506232504 76 348 2.6 6.1 0.00 0.04 0.04 83 1009.6
20260506232005 77 326 2.6 6.1 0.00 0.04 0.04 83 1009.7
20260506231513 78 316 0.9 5.2 0.00 0.04 0.04 82 1009.7
20260506231003 81 293 0.0 2.6 0.00 0.04 0.04 83 1009.4
20260506230505 82 198 0.0 0.0 0.00 0.04 0.04 87 1009.1
20260506230010 82 198 0.0 0.0 0.00 0.04 0.04 87 1009.2
20260506225507 82 198 0.0 0.0 0.00 0.04 0.04 87 1009.0
20260506225004 82 198 0.0 0.0 0.00 0.04 0.04 86 1009.1
20260506224503 82 198 0.0 0.0 0.00 0.04 0.04 86 1009.1
20260506224005 83 198 0.0 0.0 0.00 0.04 0.04 86 1009.1
20260506223502 83 198 0.0 0.0 0.00 0.04 0.04 84 1008.9
20260506223006 83 198 0.0 0.0 0.00 0.04 0.04 83 1008.9
20260506222506 83 198 0.0 0.0 0.00 0.04 0.04 82 1008.9
20260506222008 84 198 0.0 0.0 0.00 0.04 0.04 82 1008.9
20260506221521 84 198 0.0 0.0 0.00 0.04 0.04 82 1008.8
20260506221007 84 198 0.0 0.0 0.00 0.04 0.04 81 1008.8
20260506220503 84 198 0.0 0.0 0.00 0.04 0.04 80 1008.8
20260506220021 84 198 0.0 0.0 0.00 0.04 0.04 80 1008.9
20260506215504 84 198 0.0 0.0 0.00 0.04 0.04 80 1008.8
20260506215007 84 198 0.0 0.0 0.00 0.04 0.04 81 1008.8
20260506214519 84 198 0.0 0.0 0.00 0.04 0.04 82 1008.9
20260506214008 84 198 0.0 0.0 0.00 0.04 0.04 83 1009.0
20260506213507 84 198 0.0 0.0 0.00 0.04 0.04 81 1008.9
20260506213015 84 198 0.0 0.0 0.00 0.04 0.04 80 1008.9
20260506212504 86 198 0.0 0.0 0.00 0.04 0.04 78 1008.9
20260506212011 86 198 0.0 0.0 0.00 0.04 0.04 78 1009.0
20260506211512 86 198 0.0 0.0 0.00 0.04 0.04 77 1009.0
20260506211010 86 198 0.0 0.9 0.00 0.04 0.04 76 1008.9
20260506210507 86 196 0.0 0.9 0.00 0.04 0.04 76 1008.9
20260506210017 86 205 0.0 0.0 0.00 0.04 0.04 77 1009.0
20260506205512 86 205 0.0 1.7 0.00 0.04 0.04 77 1009.1
20260506205006 86 205 0.0 1.7 0.00 0.04 0.04 79 1009.2
20260506204508 86 221 0.0 2.6 0.00 0.04 0.04 79 1009.1
20260506204006 86 239 0.0 2.6 0.00 0.04 0.04 79 1009.2
20260506203509 86 199 0.0 1.7 0.00 0.04 0.04 80 1009.1
20260506203031 86 162 0.0 0.9 0.00 0.04 0.04 80 1009.2
20260506202507 86 265 0.0 0.9 0.00 0.04 0.04 82 1009.2
20260506202009 85 243 0.0 0.9 0.00 0.04 0.04 82 1009.2
20260506201522 84 205 0.0 0.0 0.00 0.04 0.04 82 1009.4
20260506201007 83 200 0.0 0.0 0.00 0.04 0.04 86 1009.4
20260506200515 82 200 0.0 0.0 0.00 0.04 0.04 87 1009.4
20260506200021 82 166 0.0 0.0 0.00 0.04 0.04 89 1009.6
20260506195507 81 167 0.0 0.0 0.00 0.04 0.04 90 1009.7
20260506195010 81 166 0.0 0.0 0.00 0.04 0.04 89 1009.8
20260506194520 80 166 0.0 0.0 0.00 0.04 0.04 90 1009.8
20260506194004 80 166 0.0 0.0 0.03 0.04 0.04 90 1009.8
20260506193506 80 166 0.0 0.0 0.04 0.04 0.04 89 1009.9
20260506193018 80 166 0.0 0.0 0.04 0.04 0.04 90 1009.9
20260506192508 80 166 0.0 0.0 0.04 0.04 0.04 90 1009.8
20260506192011 80 165 0.0 0.0 0.04 0.04 0.04 91 1009.8
20260506191516 79 165 0.0 0.0 0.04 0.04 0.04 92 1009.8
20260506191009 79 165 0.0 0.0 0.04 0.04 0.04 91 1009.9
20260506190506 79 165 0.0 0.0 0.04 0.04 0.04 91 1010.0
20260506190011 79 165 0.0 0.0 0.04 0.04 0.04 92 1010.0
20260506185508 78 165 0.0 0.0 0.04 0.04 0.04 91 1010.1
20260506185007 79 165 0.0 0.0 0.04 0.04 0.04 89 1010.2
20260506184531 79 165 0.0 0.0 0.04 0.04 0.04 89 1010.2
20260506184007 79 164 0.0 0.0 0.01 0.01 0.01 87 1010.2
20260506183504 80 164 0.0 0.0 0.00 0.00 0.00 86 1010.3
20260506183028 80 164 0.0 0.0 0.00 0.00 0.00 85 1010.4
20260506182507 80 164 0.0 0.0 0.00 0.00 0.00 85 1010.4
20260506182006 80 164 0.0 0.0 0.00 0.00 0.00 85 1010.4
20260506181527 81 164 0.0 0.0 0.00 0.00 0.00 84 1010.5
20260506181004 81 164 0.0 0.0 0.00 0.00 0.00 85 1010.6
20260506180509 81 164 0.0 0.0 0.00 0.00 0.00 84 1010.8
20260506180026 81 217 0.0 0.0 0.00 0.00 0.00 84 1010.9
20260506175506 81 217 0.0 0.0 0.00 0.00 0.00 84 1011.1
20260506175012 80 217 0.0 0.0 0.00 0.00 0.00 85 1011.1
20260506174522 80 217 0.0 0.0 0.00 0.00 0.00 85 1011.3
20260506174011 81 217 0.0 0.0 0.00 0.00 0.00 84 1011.4
20260506173508 81 217 0.0 0.0 0.00 0.00 0.00 85 1011.5
20260506173020 80 217 0.0 0.0 0.00 0.00 0.00 85 1011.5
20260506172509 80 217 0.0 0.0 0.00 0.00 0.00 87 1011.6
20260506172009 80 216 0.0 0.0 0.00 0.00 0.00 86 1011.6
20260506171523 80 216 0.0 0.0 0.00 0.00 0.00 87 1011.6
20260506171009 80 216 0.0 0.0 0.00 0.00 0.00 88 1011.5
20260506170511 80 217 0.0 0.0 0.00 0.00 0.00 86 1011.7
20260506170037 80 217 0.0 0.0 0.00 0.00 0.00 86 1011.7
20260506165508 80 216 0.0 0.0 0.00 0.00 0.00 87 1011.7
20260506165006 80 217 0.0 0.0 0.00 0.00 0.00 87 1011.7
20260506164532 80 216 0.0 0.0 0.00 0.00 0.00 87 1011.6